Location: Baha
(6.7132°N, 10.9717°W)
Time: 06:59:39
(UTC+00:00)

Daily predictions for brighter satellites

Satellite Brightness Start Highest point End
(mag) Time Altitude Azimuth Time Altitude Azimuth Time Altitude Azimuth
Ariane H10+ 3.3 19:12:41 10° WSW 19:15:52 66° SSE 19:27:44 10° E
Cosmos 1633 4.0 19:17:38 10° SE 19:20:04 18° E 19:22:29 10° NE
Cosmos 1766 Rocket 3.6 19:17:07 10° S 19:21:33 70° E 19:25:59 10° N
YAOGAN 1 3.2 19:21:03 10° SE 19:25:00 35° ENE 19:28:55 10° NNE
FALCON 9 DEB 3.7 19:22:30 10° SW 19:25:56 63° NW 19:29:22 10° NNE
Yuri Rocket 3.2 19:23:30 10° WSW 19:28:26 78° NNW 19:32:37 10° ENE
Cosmos 304 Rocket 3.7 19:25:40 10° N 19:30:26 79° ENE 19:35:12 10° SSE
Cosmos 1346 Rocket 2.8 19:28:50 10° S 19:32:46 90° ESE 19:36:43 10° N
Cosmos 1408 Rocket 3.6 19:35:37 10° S 19:39:59 61° E 19:44:23 10° NNE
COSMOS 2406 3.4 19:36:04 10° S 19:41:35 48° ESE 19:47:05 10° NNE
Cosmos 2366 rocket 4.3 19:37:59 10° SSE 19:43:56 44° E 19:49:50 10° NNE
Cosmos 1743 Rocket 4.4 19:40:12 10° SSE 19:43:56 28° E 19:47:43 10° NNE
Okean-O 3.1 19:41:41 10° S 19:46:03 64° WSW 19:50:25 10° NNW
GOES 2 Rocket 4.4 19:41:02 10° WNW 19:47:31 84° SSW 19:54:42 16° ESE
GPS 2-15 Rocket1 4.2 19:45:53 10° SW 19:49:49 27° SSE 19:51:58 19° ESE
Abrixas rocket 2.4 19:52:37 10° NNW 19:55:20 40° NE 19:56:07 31° E
CZ-2C R/B 3.3 19:50:52 10° SSE 19:55:45 44° ENE 20:00:24 10° N
SL-8 Rocket 3.9 19:50:06 10° S 19:56:14 81° E 20:02:24 10° N
CSL-04 Rocket 3.7 19:51:02 10° SSE 19:56:18 59° ENE 20:01:29 10° N
HJ-1C 3.8 19:54:24 20° SE 19:56:20 41° E 19:59:30 10° N
Cosmos 2341 Rocket 4.3 19:50:15 10° S 19:56:25 69° W 20:02:35 10° N
Cosmos 2082 Rocket 3.3 19:52:38 10° SSE 19:56:47 21° ESE 20:00:54 10° ENE
H-2A R/B 3.3 19:58:34 10° W 20:00:58 19° NW 20:02:28 10° NNE
CZ-4 R/B 2.5 19:59:11 10° S 20:02:50 42° W 20:06:29 10° NNW
Cosmos 1500 Rocket 3.6 19:59:10 10° SSE 20:03:21 49° E 20:07:30 10° NNE
CZ-2C R/B 4.4 20:04:00 10° NE 20:07:52 30° E 20:07:52 30° E
Ariane Rocket 4.1 20:07:49 23° ENE 20:07:56 23° ENE 20:11:52 10° NNE
SJ-11-01 4.3 20:04:16 14° SSE 20:08:14 61° ENE 20:12:52 10° N
MOS 1 Rocket 4.1 20:04:47 10° N 20:10:01 61° WNW 20:15:00 10° SSW
Cosmos 407 Rocket 3.9 20:07:50 10° S 20:12:48 40° ESE 20:17:45 10° NNE
ARGOS 3.5 20:10:54 27° SE 20:13:13 41° ENE 20:18:15 10° N
ARIANE DEB (SPELDA) 4.2 20:16:12 10° SSW 20:16:18 10° SSW 20:16:18 10° SSW
Cosmos 2369 Rocket 4.2 20:19:24 10° NW 20:24:03 27° WSW 20:28:45 10° SSW
USA 238 DEB 3.7 20:18:37 10° S 20:24:50 45° ESE 20:31:02 10° NE
USA 238 3.7 20:18:46 10° S 20:24:57 45° ESE 20:31:07 10° NE
H-2A R/B 2.0 20:22:57 19° SSE 20:26:55 87° ENE 20:32:07 10° N
Cosmos 1331 Rocket 4.3 20:21:48 10° NNW 20:26:56 65° WSW 20:30:56 17° S
Cosmos 2218 Rocket 4.4 20:20:47 10° SSW 20:26:57 62° W 20:33:02 10° N
Cosmos 1328 Rocket 3.5 20:29:24 10° N 20:33:49 86° W 20:34:59 50° S
CZ-2C R/B 3.1 20:30:44 10° N 20:35:52 61° WNW 20:41:06 10° SSW
Cosmos 405 4.4 20:34:28 10° N 20:36:16 29° N 20:36:16 29° N
Cosmos 1140 Rocket 4.4 20:40:41 33° NE 20:40:41 33° NE 20:43:36 10° NNE
SL-08 RB Rocket 4.2 20:41:54 48° NNE 20:41:54 48° NNE 20:45:25 10° N
Cosmos 1933 3.9 20:37:32 10° NNW 20:41:31 56° W 20:42:22 46° SW
Cosmos 1339 Rocket 4.3 20:37:39 10° N 20:43:55 75° E 20:45:37 50° SSE
Cosmos 1833 Rocket 3.4 20:41:57 10° SSW 20:47:22 52° WNW 20:52:47 10° N
Cosmos 1867 3.8 20:48:35 10° SSW 20:53:55 65° WNW 20:59:17 10° NNE
ISS -0.8 20:58:05 10° NW 20:58:47 15° NW 20:58:47 15° NW
NOSS 3-2 (A) 4.1 21:14:56 10° SW 21:23:48 18° N 21:25:20 10° N
ATLAS 5 CENTAUR R/B 3.3 21:20:26 10° WSW 21:45:09 - ENE 21:21:31 22° WSW
ARIANE 5 DEB (SYLDA) 4.2 21:16:02 10° W 21:29:03 56° WSW 21:29:03 56° WSW
Cosmos 2082 Rocket 4.0 21:35:45 10° SW 21:40:33 28° WNW 21:45:22 10° NNW
ATLAS 2A CENTAUR R/B 4.2 20:49:17 10° WSW 21:42:00 78° NNW 21:45:13 56° NE
